Regional Weather Roundup
Issued by NWS Austin/San Antonio, TX

Home | Current Version | Previous Version | Text Only | Print | Product List | Glossary On
Versions: 1 2 3 4 5 6 7 8 9 10 11 12 13 14 15 16 17 18 19 20 21 22 23 24 25 26 27 28 29 30 31 32 33 34 35 36 37 38 39 40 41 42 43 44 45 46 47 48 49 50
000
ASUS44 KEWX 201002
RWREWX
SOUTH TEXAS REGIONAL WEATHER ROUNDUP
NATIONAL WEATHER SERVICE AUSTIN/SAN ANTONIO TX
500 AM CDT FRI OCT 20 2017

NOTE: "FAIR" INDICATED FEW OR NO CLOUDS BELOW 12,000 FEET WITH NO
SIGNIFICANT WEATHER AND/OR OBSTRUCTIONS TO VISIBILITY.

* - THESE STATIONS ARE NOT NWS OR FAA STATIONS...AND ARE NOT SUBJECT
    TO NWS AND FAA QUALITY CONTROL.

TXZ171-172-183>190-201100-
TEXAS HILL COUNTRY AND EDWARDS PLATEAU

CITY           SKY/WX    TMP DP  RH WIND       PRES   REMARKS
JUNCTION       CLOUDY    65  60  84 CALM      30.06S
*LLANO         MOCLDY    63  61  94 CALM      30.09S
BURNET         FAIR      65  61  87 CALM      30.08R
*HORSESHOE BAY FAIR      63  61  91 CALM      30.06S
*KERRVILLE     CLOUDY    64  61  92 CALM      30.06F
*FREDERICKSBRG MOCLDY    63  60  91 S5        30.07S
*ROCKSPRINGS   NOT AVBL
*BOERNE STAGE  FAIR      63  61  94 CALM      30.06F
*CASTROVILLE   MOCLDY    68  63  83 CALM      30.04F
HONDO          FAIR      67  63  87 NE6       30.03F
*UVALDE        CLOUDY    67  64  88 E5        30.03F
DEL RIO        CLOUDY    68  65  90 SE12      30.00F
LAUGHLIN AFB   CLOUDY    68  63  83 SE12      30.01F
CARRIZO SPRGS  CLOUDY    70  64  83 E3        30.00S
*EAGLE PASS    NOT AVBL
$$

TXZ173-191>194-202-209-217>225-228-201100-
CENTRAL AND SOUTH CENTRAL TEXAS

CITY           SKY/WX    TMP DP  RH WIND       PRES   REMARKS
GEORGETOWN     FAIR      63  60  90 CALM      30.06S
AUSTIN/BERGSTM FAIR      63  62  97 CALM      30.03S
AUSTIN/MABRY   FAIR      67  62  84 CALM      30.04F
*AUSTIN/EXEC   FAIR      63  61  94 CALM      30.04F
*LAGO VISTA    FAIR      66  62  86 SE3       30.05F
SAN MARCOS     FAIR      64  61  90 N5        30.04S
NEW BRAUNFELS  FAIR      63  61  93 N5        30.01F
RANDOLPH AFB   CLOUDY    68  65  90 NE3       30.02F
PT SAN ANTONIO MOCLDY    67  64  87 N3        30.00F
SAN ANTONIO    MOCLDY    67  63  87 N3        30.03F
STINSON FIELD  MOCLDY    69  65  86 N5        30.00F
*LA GRANGE     CLOUDY    68  65  89 CALM      30.00S
*GIDDINGS      CLOUDY    67  62  82 CALM      30.04R
*GONZALES      CLOUDY    67  67 100 N3        30.00F
$$

TXZ163>164-176>182-195>201-210>213-226-227-235-201100-
SOUTHEAST TEXAS

CITY           SKY/WX    TMP DP  RH WIND       PRES   REMARKS
COLLEGE STN    MOCLDY    68  64  87 NE3       30.03S
*BRYAN         MOCLDY    64  64 100 CALM      30.05R
*CALDWELL      MOCLDY    66  63  90 N3        30.04S
*CROCKETT        N/A     68  59  73 E6        30.08S
*BRENHAM       FAIR      67  66  96 CALM      30.03S
HUNTSVILLE     FAIR      69  63  81 E7        30.01F
CONROE         FAIR      65  65 100 E7        30.03F
HOUSTON BUSH   MOCLDY    70  66  87 NE6       30.03S
HOUSTON HOBBY  TSTM      74  70  87 E8        30.02S
*HOUSTON SW AP CLOUDY    70  69  97 E6        30.04S THUNDER
PEARLAND       TSTM      73  70  90 E12       30.05R VSB 3/4
HOUSTON HOOKS  LGT RAIN  68  64  87 CALM      30.02F
ELLINGTON FLD  TSTM      72  70  94 E6        30.04R
SUGAR LAND     CLOUDY    70  68  93 N3        30.01F FOG
*HOUSTON EXEC  CLOUDY    68  66  94 SE5       30.03F
*CLEVELAND MUN FAIR      66  62  86 CALM      30.05F
*WHARTON       FAIR      70  68  94 NE6       30.01S
*COLUMBUS      FAIR      69  68  94 W6        30.02S
*EAGLE LAKE    FAIR      71  71  99 E7        30.01S
$$

TXZ214>216-236>238-201100-
THE UPPER TEXAS COAST

CITY           SKY/WX    TMP DP  RH WIND       PRES   REMARKS
*ORANGE        FAIR      71  69  94 E7        30.08F
PORT ARTHUR    FAIR      72  69  90 E10       30.06R
GALVESTON      TSTM      77  75  93 S20G30    30.01S FOG
ANGLETON       FAIR      72  71  97 N3        30.01F
*BAY CITY      FAIR      71  71 100 NE5       30.00F
PALACIOS       FAIR      68  68 100 NE5       29.98S
$$

TXZ229>234-239>247-201100-
TEXAS COASTAL BEND AND RIO GRANDE PLAINS

CITY           SKY/WX    TMP DP  RH WIND       PRES   REMARKS
VICTORIA       CLOUDY    70  68  93 E7        29.99F
*BEEVILLE      FAIR     N/A N/A N/A NE3       29.99S
ROCKPORT       FAIR      70  69  97 CALM      29.97S FOG
*PORT ARANSAS  NOT AVBL
*PORT LAVACA   MOCLDY    70  68  93 E6        29.99S
*INGLESIDE     NOT AVBL
CORPUS CHRISTI MOCLDY    71  71 100 CALM      29.97F
CORPUS NAS     NOT AVBL
*ROBSTOWN      MOCLDY    73  71  95 CALM      29.98F
ALICE          CLOUDY    71  69  93 S3        29.97F
KINGSVILLE NAS NOT AVBL
COTULLA        CLOUDY    71  65  81 E6        30.00S
*FAITH RANCH   CLOUDY    72  68  88 E9        30.00S
LAREDO         FAIR      70  68  93 E5        29.99S
$$

TXZ248>255-201100-
DEEP SOUTH TEXAS

CITY           SKY/WX    TMP DP  RH WIND       PRES   REMARKS
BROWNSVILLE    FAIR      70  69  97 CALM      29.97F
PORT ISABEL    FAIR      68  66  93 CALM      29.96F
*SOUTH PADRE   NOT AVBL
HARLINGEN      FOG       68  68 100 CALM      29.96F VSB 1/2
*HEBBRONVILLE    N/A     69  66  91 CALM      29.99F
MCALLEN        FAIR      73  70  90 E3        29.97F
*WESLACO       FAIR      69  67  96 CALM      29.96F
FALFURRIAS     CLOUDY    72  71  96 CALM      29.97F VSB 1/4
EDINBURG       MOCLDY    68  66  93 CALM      29.98S FOG
*ZAPATA        FAIR      70  69  99 CALM      29.97S
$$

TXZ213>215-236>238-242>244-246-247-251-254-255-201100-
CMAN STATIONS

STATION/POSITION TIME  TEMP    WIND        PRES    WAVE
                       AIR SEA DIR/SP/G            HT/PER
                 (UTC) (F)     (DEG/KT/KT) (MB)    (FT/S)
SABINE PASS      0924   74 77   50/ 11/ 13 1019.0
SEA RIM ST PARK  0900   76      90/ 10/ 12 1018.1
NORTH JETTY/GLS  0924      77  110/ 21/ 24 1015.7
EAGLE POINT      0924   73 74   80/ 17/ 20 1015.8
MORGANS POINT    0924   73 77   60/ 12/ 14 1015.9
PORT O`CONNOR    0930   75 77  310/  3/  3 1014.7
MALAQUITE BEACH  0930   76 78  220/  5/  6 1014.3
BAFFIN BAY       0930   75 76  200/  4/  4 1015.0
PORT ISABEL      0930   74 78     CALM     1014.6
$$




USA.gov is the U.S. government's official web portal to all federal, state and local government web resources and services.